Terminal Aerodrome Forecast
Issued by NWS Louisville, KY

Home | Current Version | Previous Version | Text Only | Print | Product List | Glossary On
Versions: 1 2 3 4 5 6 7 8 9 10 11 12 13 14 15 16 17 18 19
000
FTUS43 KLMK 180800 AAA
TAFSDF
TAF AMD
KSDF 180804Z 1808/1912 01006KT P6SM BKN019 OVC100
     FM181100 33004KT P6SM SCT020 OVC060
     FM181700 33005KT P6SM OVC025=

USA.gov is the U.S. government's official web portal to all federal, state and local government web resources and services.